Flag for U.S.A. Weather past 2 weeks in Boston, Massachusetts, U.S.A.

Now
34 °F

Light snow. Fog.


Feels Like: 30 °F
Forecast: 26 / 39 °F
Wind: 5 mph from North

Location: Logan International Airport

Current Time: Mar 28, 2015 at 8:01:24 PM

Latest Report: Mar 28, 2015 at 6:54 PM


Visibility: 3 mi

Pressure: 29.87 "Hg

Humidity: 85%

Dew point: 30 °F

Location of BostonLocation

Historic Weather in Boston — Graph

°F

Boston temperature yesterday

Maximum temperature yesterday: 44 °F (at 12:54 AM)
Minimum temperature yesterday: 37 °F (at 11:54 PM)
Average temperature yesterday: 40 °F

Past Weeks' High & Low Weather Summary

 TemperatureHumidityPressure
High54 °F (Mar 26, 12:54 PM)100% (Mar 14, 12:02 PM)30.43 "Hg (Mar 14, 12:02 PM)
Low18 °F (Mar 23, 5:54 AM)20% (Mar 16, 3:54 PM)29.37 "Hg (Mar 17, 3:54 PM)
Average33 °F63%29.97 "Hg
* Reported Mar 13 6:54 PM — Mar 28 6:54 PM, Boston, Weather by CustomWeather, © 2015

Note: Actual official high and low records may vary slightly from our data, if they occured in-between our weather recording intervals... More about our weather records

Advertising

Boston weather history for previous 24 hours

 ConditionsComfort  
Time TempWeatherWind HumidityBarometerVisibility
6:54 PM
Sat, Mar 28
34 °FLight snow. Fog.5 mph85%29.87 "Hg3 mi
5:54 PM34 °FLight snow. Fog.7 mph88%29.83 "Hg2 mi
4:54 PM34 °FLight snow. Fog.12 mph92%29.80 "Hg2 mi
3:54 PM33 °FLight snow. Fog.14 mph92%29.78 "Hg1 mi
2:54 PM33 °FLight snow. Fog.13 mph92%29.76 "Hg1 mi
2:04 PM32 °FLight snow. Ice fog.12 mph93%29.76 "Hg1 mi
1:54 PM32 °FLight snow. Ice fog.12 mph92%29.76 "Hg1 mi
12:54 PM33 °FLight snow. Fog.12 mph92%29.76 "Hg1 mi
11:54 AM32 °FLight snow. Ice fog.17 mph92%29.77 "Hg1 mi
10:54 AM33 °FLight snow. Fog.20 mph92%29.77 "Hg1 mi
9:54 AM33 °FLight snow. Fog.16 mph96%29.75 "Hg1 mi
9:01 AM34 °FLight snow. Fog.16 mph87%29.75 "Hg1 mi
8:54 AM34 °FLight snow. Fog.17 mph88%29.75 "Hg1 mi
7:54 AM35 °FLight snow. Overcast.16 mph85%29.75 "Hg7 mi
7:01 AM36 °FLight snow. Overcast.20 mph81%29.73 "Hg8 mi
5:54 AM37 °FOvercast.15 mph79%29.71 "Hg10 mi
4:54 AM37 °FOvercast.14 mph82%29.72 "Hg10 mi
3:54 AM37 °FOvercast.9 mph86%29.72 "Hg10 mi
2:54 AM38 °FOvercast.5 mph79%29.74 "Hg10 mi
1:54 AM39 °FOvercast.7 mph86%29.75 "Hg10 mi
12:54 AM40 °FOvercast.6 mph86%29.75 "Hg10 mi
11:54 PM
Fri, Mar 27
37 °FMostly cloudy.No wind96%29.76 "Hg9 mi
10:54 PM38 °FOvercast.No wind93%29.74 "Hg10 mi
9:54 PM38 °FPassing clouds.5 mph90%29.76 "Hg10 mi
8:54 PM41 °FPartly cloudy.No wind80%29.74 "Hg10 mi
Weather by CustomWeather, © 2015

See weather overviewHow to use our weather pages